This is the latest recevied weather packets stored in our database for station/object OK1LPD-6. If no packets are shown the sender has not sent any weather packets the latest 10 day(s).
| Time | Temp. | Humidity | Pressure | Rain* | Wind** | Luminosity | Snow |
|---|---|---|---|---|---|---|---|
| 1777396534 | 17.22° C | 33% | 1019.9 hPa | 0 mm | - | - | - |
| 1777395913 | 17.78° C | 30% | 1019.9 hPa | 0 mm | - | - | - |
| 1777395313 | 17.78° C | 30% | 1019.9 hPa | 0 mm | - | - | - |
| 1777394732 | 17.78° C | 30% | 1019.7 hPa | 0 mm | - | - | - |
| 1777394113 | 17.78° C | 30% | 1019.6 hPa | 0 mm | - | - | - |
| 1777393514 | 18.33° C | 30% | 1019.6 hPa | 0 mm | - | - | - |
| 1777392935 | 18.33° C | 30% | 1019.7 hPa | 0 mm | - | - | - |
| 1777392315 | 18.89° C | 25% | 1019.6 hPa | 0 mm | - | - | - |
| 1777391714 | 19.44° C | 26% | 1019.5 hPa | 0 mm | - | - | - |
| 1777391132 | 19.44° C | 26% | 1019.7 hPa | 0 mm | - | - | - |
| 1777390515 | 19.44° C | 26% | 1019.5 hPa | 0 mm | - | - | - |
| 1777389915 | 19.44° C | 26% | 1019.6 hPa | 0 mm | - | - | - |
| 1777389342 | 19.44° C | 25% | 1019.8 hPa | 0 mm | - | - | - |
| 1777388715 | 19.44° C | 25% | 1019.7 hPa | 0 mm | - | - | - |
| 1777388115 | 19.44° C | 25% | 1019.8 hPa | 0 mm | - | - | - |
| 1777387533 | 19.44° C | 25% | 1019.9 hPa | 0 mm | - | - | - |
| 1777386914 | 20° C | 24% | 1019.9 hPa | 0 mm | - | - | - |
| 1777386315 | 19.44° C | 23% | 1020 hPa | 0 mm | - | - | - |
| 1777385736 | 19.44° C | 24% | 1020.1 hPa | 0 mm | - | - | - |
| 1777385116 | 19.44° C | 25% | 1020.1 hPa | 0 mm | - | - | - |
| 1777384516 | 19.44° C | 24% | 1020.2 hPa | 0 mm | - | - | - |
| 1777383934 | 18.89° C | 24% | 1020.1 hPa | 0 mm | - | - | - |
| 1777383316 | 19.44° C | 22% | 1020.2 hPa | 0 mm | - | - | - |
| 1777382716 | 19.44° C | 22% | 1020.2 hPa | 0 mm | - | - | - |
| 1777382136 | 19.44° C | 22% | 1020.5 hPa | 0 mm | - | - | - |
* Rain latest hour (hover to see other rain measurements)
** Current wind speed in m/s (hover to see current wind gust speed)